Time,TemperatureF,DewpointF,PressureIn,WindDirection,WindDirectionDegrees,WindSpeedMPH,WindSpeedGustMPH,Humidity,HourlyPrecipIn,Conditions,Clouds,dailyrainin,SolarRadiationWatts/m^2,SoftwareType,DateUTC
2013-02-12 00:00:00,29.2,22.6,30.08,WNW,291,17.3,17.3,76,0.00,OVC,,0.00,0.0,WeatherDisplay:10.37,2013-02-12 06:00:00,
2013-02-12 00:05:00,29.0,22.4,30.08,WSW,254,13.8,13.8,76,0.00,OVC,,0.00,0.0,WeatherDisplay:10.37,2013-02-12 06:05:00,
2013-02-12 00:10:00,28.8,22.5,30.09,WNW,282,16.1,16.1,77,0.00,OVC,,0.00,0.0,WeatherDisplay:10.37,2013-02-12 06:10:00,
2013-02-12 00:15:00,28.7,22.4,30.09,West,280,11.5,11.5,77,0.00,OVC,,0.00,0.0,WeatherDisplay:10.37,2013-02-12 06:15:00,
2013-02-12 00:20:00,28.7,22.4,30.09,WNW,286,12.7,12.7,77,0.00,OVC,,0.00,0.0,WeatherDisplay:10.37,2013-02-12 06:20:00,
2013-02-12 00:25:00,28.7,22.4,30.09,West,277,12.7,12.7,77,0.00,OVC,,0.00,0.0,WeatherDisplay:10.37,2013-02-12 06:25:00,
2013-02-12 00:30:00,28.8,22.5,30.09,West,275,13.8,13.8,77,0.00,OVC,,0.00,0.0,WeatherDisplay:10.37,2013-02-12 06:30:00,
2013-02-12 00:35:00,28.8,22.5,30.09,WNW,297,11.5,11.5,77,0.00,OVC,,0.00,0.0,WeatherDisplay:10.37,2013-02-12 06:35:00,
2013-02-12 00:40:00,28.9,22.6,30.09,WSW,257,12.7,12.7,77,0.00,OVC,,0.00,0.0,WeatherDisplay:10.37,2013-02-12 06:40:00,
2013-02-12 00:45:00,28.9,22.6,30.09,West,281,11.5,11.5,77,0.00,OVC,,0.00,0.0,WeatherDisplay:10.37,2013-02-12 06:45:00,
2013-02-12 00:50:00,29.0,22.7,30.09,NW,315,11.5,11.5,77,0.00,OVC,,0.00,0.0,WeatherDisplay:10.37,2013-02-12 06:50:00,
2013-02-12 00:55:00,29.0,22.7,30.09,West,273,13.8,13.8,77,0.00,OVC,,0.00,0.0,WeatherDisplay:10.37,2013-02-12 06:55:00,
2013-02-12 01:00:00,29.0,22.7,30.09,West,259,12.7,12.7,77,0.00,OVC,,0.00,0.0,WeatherDisplay:10.37,2013-02-12 07:00:00,
2013-02-12 01:05:00,29.0,22.7,30.09,NW,319,10.0,10.0,77,0.00,OVC,,0.00,0.0,WeatherDisplay:10.37,2013-02-12 07:05:00,
2013-02-12 01:10:00,29.0,23.0,30.09,West,277,10.4,10.4,78,0.00,OVC,,0.00,0.0,WeatherDisplay:10.37,2013-02-12 07:10:00,
2013-02-12 01:15:00,29.0,22.7,30.09,West,271,11.5,11.5,77,0.00,OVC,,0.00,0.0,WeatherDisplay:10.37,2013-02-12 07:15:00,
2013-02-12 01:20:00,29.0,22.7,30.09,West,278,16.1,16.1,77,0.00,OVC,,0.00,0.0,WeatherDisplay:10.37,2013-02-12 07:20:00,
2013-02-12 01:25:00,29.0,23.0,30.09,NW,311,11.5,11.5,78,0.00,OVC,,0.00,0.0,WeatherDisplay:10.37,2013-02-12 07:25:00,
2013-02-12 01:31:00,29.0,22.7,30.09,WNW,294,13.8,13.8,77,0.00,OVC,,0.00,0.0,WeatherDisplay:10.37,2013-02-12 07:31:00,
2013-02-12 01:36:00,28.9,22.3,30.09,West,272,17.3,17.3,76,0.00,OVC,,0.00,0.0,WeatherDisplay:10.37,2013-02-12 07:36:00,
2013-02-12 01:41:00,28.9,22.6,30.09,West,268,18.4,18.4,77,0.00,OVC,,0.00,0.0,WeatherDisplay:10.37,2013-02-12 07:41:00,
2013-02-12 01:46:00,28.9,22.6,30.10,West,279,17.3,17.3,77,0.00,OVC,,0.00,0.0,WeatherDisplay:10.37,2013-02-12 07:46:00,
2013-02-12 01:51:00,28.8,22.2,30.10,SW,234,19.6,19.6,76,0.00,OVC,,0.00,0.0,WeatherDisplay:10.37,2013-02-12 07:51:00,
2013-02-12 01:56:00,28.8,22.2,30.10,West,273,19.6,19.6,76,0.00,OVC,,0.00,0.0,WeatherDisplay:10.37,2013-02-12 07:56:00,
2013-02-12 02:01:00,28.8,22.2,30.10,WSW,254,19.6,19.6,76,0.00,OVC,,0.00,0.0,WeatherDisplay:10.37,2013-02-12 08:01:00,
2013-02-12 02:06:00,28.8,22.2,30.11,NW,312,16.1,16.1,76,0.00,OVC,,0.00,0.0,WeatherDisplay:10.37,2013-02-12 08:06:00,
2013-02-12 02:11:00,28.8,22.5,30.11,WNW,286,10.4,10.4,77,0.00,OVC,,0.00,0.0,WeatherDisplay:10.37,2013-02-12 08:11:00,
2013-02-12 02:16:00,28.8,22.5,30.11,WNW,297,12.7,12.7,77,0.00,OVC,,0.00,0.0,WeatherDisplay:10.37,2013-02-12 08:16:00,
2013-02-12 02:21:00,28.8,22.5,30.11,NW,315,9.2,9.2,77,0.00,OVC,,0.00,0.0,WeatherDisplay:10.37,2013-02-12 08:21:00,
2013-02-12 02:26:00,28.8,22.8,30.11,WNW,300,9.2,9.2,78,0.00,OVC,,0.00,0.0,WeatherDisplay:10.37,2013-02-12 08:26:00,
2013-02-12 02:31:00,28.9,22.9,30.11,West,275,11.5,11.5,78,0.00,OVC,,0.00,0.0,WeatherDisplay:10.37,2013-02-12 08:31:00,
2013-02-12 02:36:00,28.9,22.9,30.11,NW,309,10.4,10.4,78,0.00,OVC,,0.00,0.0,WeatherDisplay:10.37,2013-02-12 08:36:00,
2013-02-12 02:41:00,28.9,22.9,30.11,WSW,254,11.5,11.5,78,0.00,OVC,,0.00,0.0,WeatherDisplay:10.37,2013-02-12 08:41:00,
2013-02-12 02:46:00,28.8,22.8,30.11,NNW,331,11.5,11.5,78,0.00,OVC,,0.00,0.0,WeatherDisplay:10.37,2013-02-12 08:46:00,
2013-02-12 02:51:00,28.7,22.7,30.11,NW,315,11.5,11.5,78,0.00,OVC,,0.00,0.0,WeatherDisplay:10.37,2013-02-12 08:51:00,
2013-02-12 02:56:00,28.7,22.7,30.11,NW,320,17.3,17.3,78,0.00,OVC,,0.00,0.0,WeatherDisplay:10.37,2013-02-12 08:56:00,
2013-02-12 03:01:00,28.7,23.0,30.11,WSW,251,8.1,8.1,79,0.00,OVC,,0.00,0.0,WeatherDisplay:10.37,2013-02-12 09:01:00,
2013-02-12 03:06:00,28.6,22.6,30.11,West,270,12.0,12.0,78,0.00,OVC,,0.00,0.0,WeatherDisplay:10.37,2013-02-12 09:06:00,
2013-02-12 03:11:00,28.5,22.8,30.11,West,273,8.1,8.1,79,0.00,OVC,,0.00,0.0,WeatherDisplay:10.37,2013-02-12 09:11:00,
2013-02-12 03:16:00,28.3,22.3,30.11,West,259,13.8,13.8,78,0.00,OVC,,0.00,0.0,WeatherDisplay:10.37,2013-02-12 09:16:00,
2013-02-12 03:21:00,28.2,22.5,30.11,West,271,11.5,11.5,79,0.00,OVC,,0.00,0.0,WeatherDisplay:10.37,2013-02-12 09:21:00,
2013-02-12 03:26:00,28.2,22.5,30.11,WNW,296,8.1,8.1,79,0.00,OVC,,0.00,0.0,WeatherDisplay:10.37,2013-02-12 09:26:00,
2013-02-12 03:31:00,28.2,22.5,30.11,West,272,10.4,10.4,79,0.00,OVC,,0.00,0.0,WeatherDisplay:10.37,2013-02-12 09:31:00,
2013-02-12 03:36:00,28.0,22.6,30.11,NW,309,11.5,11.5,80,0.00,OVC,,0.00,0.0,WeatherDisplay:10.37,2013-02-12 09:36:00,
2013-02-12 03:41:00,27.9,22.5,30.11,WNW,298,12.0,12.0,80,0.00,OVC,,0.00,0.0,WeatherDisplay:10.37,2013-02-12 09:41:00,
2013-02-12 03:46:00,27.6,21.9,30.11,West,279,11.5,11.5,79,0.00,OVC,,0.00,0.0,WeatherDisplay:10.37,2013-02-12 09:46:00,
2013-02-12 03:51:00,27.3,21.6,30.11,West,281,15.0,15.0,79,0.00,OVC,,0.00,0.0,WeatherDisplay:10.37,2013-02-12 09:51:00,
2013-02-12 03:56:00,27.2,21.5,30.11,NW,314,9.2,9.2,79,0.00,OVC,,0.00,0.0,WeatherDisplay:10.37,2013-02-12 09:56:00,
2013-02-12 04:01:00,26.9,21.6,30.11,NW,306,10.4,10.4,80,0.00,OVC,,0.00,0.0,WeatherDisplay:10.37,2013-02-12 10:01:00,
2013-02-12 04:06:00,26.7,21.7,30.11,NW,311,11.5,11.5,81,0.00,OVC,,0.00,0.0,WeatherDisplay:10.37,2013-02-12 10:06:00,
2013-02-12 04:11:00,26.6,21.6,30.11,WNW,287,10.4,10.4,81,0.00,OVC,,0.00,0.0,WeatherDisplay:10.37,2013-02-12 10:11:00,
2013-02-12 04:16:00,26.6,21.6,30.12,NW,317,8.1,8.1,81,0.00,OVC,,0.00,0.0,WeatherDisplay:10.37,2013-02-12 10:16:00,
2013-02-12 04:21:00,26.6,21.6,30.12,NW,313,6.9,6.9,81,0.00,OVC,,0.00,0.0,WeatherDisplay:10.37,2013-02-12 10:21:00,
2013-02-12 04:26:00,26.5,21.7,30.12,WNW,299,6.9,6.9,82,0.00,OVC,,0.00,0.0,WeatherDisplay:10.37,2013-02-12 10:26:00,
2013-02-12 04:31:00,26.4,21.7,30.12,NW,308,8.1,8.1,82,0.00,OVC,,0.00,0.0,WeatherDisplay:10.37,2013-02-12 10:31:00,
2013-02-12 04:36:00,26.3,21.6,30.12,WNW,293,8.1,8.1,82,0.00,OVC,,0.00,0.0,WeatherDisplay:10.37,2013-02-12 10:36:00,
2013-02-12 04:41:00,26.3,21.6,30.12,WNW,296,10.4,10.4,82,0.00,OVC,,0.00,0.0,WeatherDisplay:10.37,2013-02-12 10:41:00,
2013-02-12 04:46:00,26.4,21.7,30.12,WNW,286,10.4,10.4,82,0.00,OVC,,0.00,0.0,WeatherDisplay:10.37,2013-02-12 10:46:00,
2013-02-12 04:51:00,26.5,21.7,30.12,WNW,300,11.5,11.5,82,0.00,OVC,,0.00,0.0,WeatherDisplay:10.37,2013-02-12 10:51:00,
2013-02-12 04:56:00,26.5,21.5,30.12,WNW,295,13.8,13.8,81,0.00,OVC,,0.00,0.0,WeatherDisplay:10.37,2013-02-12 10:56:00,
2013-02-12 05:01:00,26.5,21.5,30.12,NW,311,10.4,10.4,81,0.00,OVC,,0.00,0.0,WeatherDisplay:10.37,2013-02-12 11:01:00,
2013-02-12 05:06:00,26.5,21.5,30.12,NW,311,11.5,11.5,81,0.00,OVC,,0.00,0.0,WeatherDisplay:10.37,2013-02-12 11:06:00,
2013-02-12 05:11:00,26.5,21.5,30.12,NW,306,4.6,4.6,81,0.00,OVC,,0.00,0.0,WeatherDisplay:10.37,2013-02-12 11:11:00,
2013-02-12 05:16:00,26.5,21.5,30.12,West,259,10.0,10.0,81,0.00,OVC,,0.00,0.0,WeatherDisplay:10.37,2013-02-12 11:16:00,
2013-02-12 05:21:00,26.5,21.5,30.12,WNW,289,11.5,11.5,81,0.00,OVC,,0.00,0.0,WeatherDisplay:10.37,2013-02-12 11:21:00,
2013-02-12 05:26:00,26.6,21.6,30.12,NNW,329,11.5,11.5,81,0.00,OVC,,0.00,0.0,WeatherDisplay:10.37,2013-02-12 11:26:00,
2013-02-12 05:31:00,26.6,21.6,30.12,NW,317,6.9,6.9,81,0.00,OVC,,0.00,0.0,WeatherDisplay:10.37,2013-02-12 11:31:00,
2013-02-12 05:36:00,26.7,21.7,30.13,WNW,290,11.5,11.5,81,0.00,OVC,,0.00,0.0,WeatherDisplay:10.37,2013-02-12 11:36:00,
2013-02-12 05:41:00,26.7,21.7,30.12,NW,312,11.5,11.5,81,0.00,OVC,,0.00,0.0,WeatherDisplay:10.37,2013-02-12 11:41:00,
2013-02-12 05:46:00,26.7,21.7,30.12,NW,311,10.4,10.4,81,0.00,OVC,,0.00,0.0,WeatherDisplay:10.37,2013-02-12 11:46:00,
2013-02-12 05:51:00,26.8,22.0,30.12,WNW,300,6.9,6.9,82,0.00,OVC,,0.00,0.0,WeatherDisplay:10.37,2013-02-12 11:51:00,
2013-02-12 05:56:00,26.8,22.0,30.12,NW,306,9.2,9.2,82,0.00,OVC,,0.00,0.0,WeatherDisplay:10.37,2013-02-12 11:56:00,
2013-02-12 06:01:00,26.8,22.0,30.12,NW,306,5.8,5.8,82,0.00,OVC,,0.00,0.0,WeatherDisplay:10.37,2013-02-12 12:01:00,
2013-02-12 06:06:00,26.7,21.9,30.12,West,277,6.9,6.9,82,0.00,OVC,,0.00,0.0,WeatherDisplay:10.37,2013-02-12 12:06:00,
2013-02-12 06:11:00,26.7,21.9,30.12,WNW,294,8.1,8.1,82,0.00,OVC,,0.00,0.0,WeatherDisplay:10.37,2013-02-12 12:11:00,
2013-02-12 06:16:00,26.7,21.9,30.12,NW,305,5.8,5.8,82,0.00,OVC,,0.00,0.0,WeatherDisplay:10.37,2013-02-12 12:16:00,
2013-02-12 06:21:00,26.7,21.9,30.12,WNW,301,8.1,8.1,82,0.00,OVC,,0.00,0.0,WeatherDisplay:10.37,2013-02-12 12:21:00,
2013-02-12 06:26:00,26.6,21.8,30.12,NW,308,6.9,6.9,82,0.00,OVC,,0.00,0.0,WeatherDisplay:10.37,2013-02-12 12:26:00,
2013-02-12 06:32:00,26.7,21.9,30.12,NW,311,9.2,9.2,82,0.00,OVC,,0.00,0.0,WeatherDisplay:10.37,2013-02-12 12:32:00,
2013-02-12 06:37:00,26.7,21.9,30.12,NW,314,6.9,6.9,82,0.00,OVC,,0.00,0.0,WeatherDisplay:10.37,2013-02-12 12:37:00,
2013-02-12 06:42:00,26.7,22.2,30.12,NW,311,6.9,6.9,83,0.00,OVC,,0.00,0.0,WeatherDisplay:10.37,2013-02-12 12:42:00,
2013-02-12 06:47:00,26.6,21.8,30.11,NW,316,8.1,8.1,82,0.00,OVC,,0.00,0.0,WeatherDisplay:10.37,2013-02-12 12:47:00,
2013-02-12 06:52:00,26.7,22.2,30.12,NW,308,4.6,4.6,83,0.00,OVC,,0.00,0.0,WeatherDisplay:10.37,2013-02-12 12:52:00,
2013-02-12 06:57:00,26.7,22.2,30.12,WNW,298,8.1,8.1,83,0.00,OVC,,0.00,5.0,WeatherDisplay:10.37,2013-02-12 12:57:00,
2013-02-12 07:02:00,26.7,21.9,30.12,WNW,290,5.8,5.8,82,0.00,OVC,,0.00,7.0,WeatherDisplay:10.37,2013-02-12 13:02:00,
2013-02-12 07:07:00,26.7,21.9,30.12,NW,310,6.9,6.9,82,0.00,OVC,,0.00,9.0,WeatherDisplay:10.37,2013-02-12 13:07:00,
2013-02-12 07:12:00,26.8,22.0,30.13,WNW,290,5.0,5.0,82,0.00,OVC,,0.00,12.0,WeatherDisplay:10.37,2013-02-12 13:12:00,
2013-02-12 07:17:00,26.9,22.1,30.14,West,278,8.1,8.1,82,0.00,OVC,,0.00,14.0,WeatherDisplay:10.37,2013-02-12 13:17:00,
2013-02-12 07:22:00,27.0,22.2,30.13,WSW,248,4.0,4.0,82,0.00,OVC,,0.00,18.0,WeatherDisplay:10.37,2013-02-12 13:22:00,
2013-02-12 07:27:00,27.0,22.2,30.12,West,265,5.8,5.8,82,0.00,OVC,,0.00,25.0,WeatherDisplay:10.37,2013-02-12 13:27:00,
2013-02-12 07:32:00,27.1,22.3,30.13,WNW,287,8.1,8.1,82,0.00,OVC,,0.00,28.0,WeatherDisplay:10.37,2013-02-12 13:32:00,
2013-02-12 07:37:00,27.1,22.3,30.12,WNW,286,8.1,8.1,82,0.00,OVC,,0.00,28.0,WeatherDisplay:10.37,2013-02-12 13:37:00,
2013-02-12 07:42:00,27.2,22.4,30.13,West,263,7.0,7.0,82,0.00,OVC,,0.00,37.0,WeatherDisplay:10.37,2013-02-12 13:42:00,
2013-02-12 07:47:00,27.3,22.5,30.13,NW,316,6.9,6.9,82,0.00,OVC,,0.00,42.0,WeatherDisplay:10.37,2013-02-12 13:47:00,
2013-02-12 07:52:00,27.4,22.9,30.13,West,273,5.8,5.8,83,0.00,OVC,,0.00,44.0,WeatherDisplay:10.37,2013-02-12 13:52:00,
2013-02-12 07:57:00,27.4,22.6,30.13,West,263,5.8,5.8,82,0.00,OVC,,0.00,49.0,WeatherDisplay:10.37,2013-02-12 13:57:00,
2013-02-12 08:02:00,27.3,22.5,30.13,WSW,243,7.0,7.0,82,0.00,OVC,,0.00,53.0,WeatherDisplay:10.37,2013-02-12 14:02:00,
2013-02-12 08:07:00,27.3,22.5,30.14,West,261,8.1,8.1,82,0.00,OVC,,0.00,54.0,WeatherDisplay:10.37,2013-02-12 14:07:00,
2013-02-12 08:12:00,27.3,22.8,30.13,West,269,8.1,8.1,83,0.00,OVC,,0.00,58.0,WeatherDisplay:10.37,2013-02-12 14:12:00,
2013-02-12 08:17:00,27.2,22.4,30.13,WNW,288,10.4,10.4,82,0.00,OVC,,0.00,76.0,WeatherDisplay:10.37,2013-02-12 14:17:00,
2013-02-12 08:22:00,27.1,22.3,30.13,WNW,289,8.1,8.1,82,0.00,OVC,,0.00,90.0,WeatherDisplay:10.37,2013-02-12 14:22:00,
2013-02-12 08:27:00,27.1,22.3,30.12,West,281,8.1,8.1,82,0.00,OVC,,0.00,98.0,WeatherDisplay:10.37,2013-02-12 14:27:00,
2013-02-12 08:32:00,27.1,22.3,30.13,West,260,8.0,8.0,82,0.00,OVC,,0.00,100.0,WeatherDisplay:10.37,2013-02-12 14:32:00,
2013-02-12 08:37:00,27.2,22.4,30.13,West,280,8.0,8.0,82,0.00,OVC,,0.00,97.0,WeatherDisplay:10.37,2013-02-12 14:37:00,
2013-02-12 08:42:00,27.2,22.4,30.14,West,259,8.1,8.1,82,0.00,OVC,,0.00,83.0,WeatherDisplay:10.37,2013-02-12 14:42:00,
2013-02-12 08:47:00,27.3,22.8,30.13,WSW,248,6.9,6.9,83,0.00,OVC,,0.00,77.0,WeatherDisplay:10.37,2013-02-12 14:47:00,
2013-02-12 08:52:00,27.5,23.0,30.14,West,274,6.9,6.9,83,0.00,OVC,,0.00,91.0,WeatherDisplay:10.37,2013-02-12 14:52:00,
2013-02-12 08:57:00,27.4,22.6,30.14,WNW,283,9.2,9.2,82,0.00,OVC,,0.00,97.0,WeatherDisplay:10.37,2013-02-12 14:57:00,
2013-02-12 09:02:00,27.1,22.0,30.14,WSW,258,8.1,8.1,81,0.00,OVC,,0.00,128.0,WeatherDisplay:10.37,2013-02-12 15:02:00,
2013-02-12 09:07:00,27.0,21.9,30.14,WNW,283,8.1,8.1,81,0.00,OVC,,0.00,141.0,WeatherDisplay:10.37,2013-02-12 15:07:00,
2013-02-12 09:12:00,27.0,22.2,30.14,West,263,5.8,5.8,82,0.00,OVC,,0.00,158.0,WeatherDisplay:10.37,2013-02-12 15:12:00,
2013-02-12 09:17:00,27.3,22.5,30.14,SW,231,9.2,9.2,82,0.00,OVC,,0.00,155.0,WeatherDisplay:10.37,2013-02-12 15:17:00,
2013-02-12 09:22:00,27.4,22.3,30.14,West,267,10.4,10.4,81,0.00,OVC,,0.00,120.0,WeatherDisplay:10.37,2013-02-12 15:22:00,
2013-02-12 09:27:00,27.3,22.5,30.15,West,271,9.2,9.2,82,0.00,OVC,,0.00,148.0,WeatherDisplay:10.37,2013-02-12 15:27:00,
2013-02-12 09:32:00,27.3,22.2,30.15,West,263,9.2,9.2,81,0.00,OVC,,0.00,149.0,WeatherDisplay:10.37,2013-02-12 15:32:00,
2013-02-12 09:37:00,27.4,22.6,30.15,WSW,256,8.1,8.1,82,0.00,OVC,,0.00,160.0,WeatherDisplay:10.37,2013-02-12 15:37:00,
2013-02-12 09:42:00,27.4,22.3,30.15,West,259,10.4,10.4,81,0.00,OVC,,0.00,160.0,WeatherDisplay:10.37,2013-02-12 15:42:00,
2013-02-12 09:47:00,27.4,22.0,30.15,West,263,9.2,9.2,80,0.00,OVC,,0.00,153.0,WeatherDisplay:10.37,2013-02-12 15:47:00,
2013-02-12 09:52:00,27.5,22.4,30.15,WSW,257,8.0,8.0,81,0.00,OVC,,0.00,165.0,WeatherDisplay:10.37,2013-02-12 15:52:00,
2013-02-12 09:57:00,27.8,22.7,30.15,West,268,11.5,11.5,81,0.00,OVC,,0.00,181.0,WeatherDisplay:10.37,2013-02-12 15:57:00,
2013-02-12 10:02:00,27.9,22.5,30.14,West,281,6.9,6.9,80,0.00,OVC,,0.00,209.0,WeatherDisplay:10.37,2013-02-12 16:02:00,
2013-02-12 10:07:00,28.2,22.8,30.14,West,277,6.9,6.9,80,0.00,OVC,,0.00,183.0,WeatherDisplay:10.37,2013-02-12 16:07:00,
2013-02-12 10:12:00,28.2,22.8,30.14,West,275,11.5,11.5,80,0.00,OVC,,0.00,209.0,WeatherDisplay:10.37,2013-02-12 16:12:00,
2013-02-12 10:17:00,28.2,22.8,30.14,West,261,11.5,11.5,80,0.00,OVC,,0.00,195.0,WeatherDisplay:10.37,2013-02-12 16:17:00,
2013-02-12 10:22:00,28.3,23.2,30.15,NW,304,8.1,8.1,81,0.00,OVC,,0.00,204.0,WeatherDisplay:10.37,2013-02-12 16:22:00,
2013-02-12 10:27:00,28.4,23.0,30.14,WNW,300,6.9,6.9,80,0.00,OVC,,0.00,195.0,WeatherDisplay:10.37,2013-02-12 16:27:00,
2013-02-12 10:32:00,28.7,23.6,30.14,WSW,249,10.4,10.4,81,0.00,OVC,,0.00,234.0,WeatherDisplay:10.37,2013-02-12 16:32:00,
2013-02-12 10:37:00,28.7,23.3,30.14,West,259,10.4,10.4,80,0.00,OVC,,0.00,229.0,WeatherDisplay:10.37,2013-02-12 16:37:00,
2013-02-12 10:42:00,28.7,23.3,30.14,SW,236,9.2,9.2,80,0.00,OVC,,0.00,218.0,WeatherDisplay:10.37,2013-02-12 16:42:00,
2013-02-12 10:47:00,28.7,23.3,30.13,West,276,8.0,8.0,80,0.00,OVC,,0.00,202.0,WeatherDisplay:10.37,2013-02-12 16:47:00,
2013-02-12 10:52:00,28.7,23.3,30.13,WNW,292,11.5,11.5,80,0.00,OVC,,0.00,207.0,WeatherDisplay:10.37,2013-02-12 16:52:00,
2013-02-12 10:57:00,28.5,23.1,30.12,WSW,254,11.5,11.5,80,0.00,OVC,,0.00,190.0,WeatherDisplay:10.37,2013-02-12 16:57:00,
2013-02-12 11:02:00,28.5,23.1,30.12,WSW,246,10.4,10.4,80,0.00,OVC,,0.00,234.0,WeatherDisplay:10.37,2013-02-12 17:02:00,
2013-02-12 11:07:00,28.6,23.2,30.12,WSW,242,8.0,8.0,80,0.00,OVC,,0.00,204.0,WeatherDisplay:10.37,2013-02-12 17:07:00,
2013-02-12 11:12:00,28.7,23.3,30.11,West,265,8.1,8.1,80,0.00,OVC,,0.00,251.0,WeatherDisplay:10.37,2013-02-12 17:12:00,
2013-02-12 11:17:00,28.7,23.3,30.10,WNW,286,6.9,6.9,80,0.00,OVC,,0.00,250.0,WeatherDisplay:10.37,2013-02-12 17:17:00,
2013-02-12 11:22:00,28.9,23.8,30.10,West,275,6.9,6.9,81,0.00,OVC,,0.00,248.0,WeatherDisplay:10.37,2013-02-12 17:22:00,
2013-02-12 11:27:00,28.9,23.8,30.10,WNW,283,8.0,8.0,81,0.00,OVC,,0.00,204.0,WeatherDisplay:10.37,2013-02-12 17:27:00,
2013-02-12 11:32:00,29.1,23.7,30.10,NW,309,6.9,6.9,80,0.00,OVC,,0.00,223.0,WeatherDisplay:10.37,2013-02-12 17:32:00,
2013-02-12 11:37:00,29.2,24.1,30.09,WSW,244,6.9,6.9,81,0.00,OVC,,0.00,213.0,WeatherDisplay:10.37,2013-02-12 17:37:00,
2013-02-12 11:42:00,29.4,24.3,30.09,WNW,288,8.1,8.1,81,0.00,OVC,,0.00,197.0,WeatherDisplay:10.37,2013-02-12 17:42:00,
2013-02-12 11:47:00,29.3,23.9,30.08,West,274,10.4,10.4,80,0.00,OVC,,0.00,192.0,WeatherDisplay:10.37,2013-02-12 17:47:00,
2013-02-12 11:52:00,29.1,23.7,30.08,WNW,284,9.2,9.2,80,0.00,OVC,,0.00,225.0,WeatherDisplay:10.37,2013-02-12 17:52:00,
2013-02-12 11:57:00,29.2,24.4,30.08,West,259,7.0,7.0,82,0.00,OVC,,0.00,207.0,WeatherDisplay:10.37,2013-02-12 17:57:00,
2013-02-12 12:02:00,29.2,23.8,30.08,WSW,254,3.5,3.5,80,0.00,OVC,,0.00,225.0,WeatherDisplay:10.37,2013-02-12 18:02:00,
2013-02-12 12:07:00,29.3,23.9,30.08,NW,306,10.4,10.4,80,0.00,OVC,,0.00,220.0,WeatherDisplay:10.37,2013-02-12 18:07:00,
2013-02-12 12:13:00,29.4,23.7,30.08,WNW,298,11.5,11.5,79,0.00,OVC,,0.00,294.0,WeatherDisplay:10.37,2013-02-12 18:13:00,
2013-02-12 12:18:00,29.4,23.4,30.08,WSW,246,10.0,10.0,78,0.00,OVC,,0.00,258.0,WeatherDisplay:10.37,2013-02-12 18:18:00,
2013-02-12 12:23:00,29.3,23.3,30.09,WSW,244,9.2,9.2,78,0.00,OVC,,0.00,237.0,WeatherDisplay:10.37,2013-02-12 18:23:00,
2013-02-12 12:28:00,29.2,23.5,30.08,WSW,248,10.4,10.4,79,0.00,OVC,,0.00,214.0,WeatherDisplay:10.37,2013-02-12 18:28:00,
2013-02-12 12:33:00,29.3,23.3,30.08,West,264,6.9,6.9,78,0.00,OVC,,0.00,193.0,WeatherDisplay:10.37,2013-02-12 18:33:00,
2013-02-12 12:38:00,29.4,23.7,30.08,West,270,3.5,3.5,79,0.00,OVC,,0.00,183.0,WeatherDisplay:10.37,2013-02-12 18:38:00,
2013-02-12 12:43:00,29.5,23.8,30.08,WNW,300,6.0,6.0,79,0.00,OVC,,0.00,181.0,WeatherDisplay:10.37,2013-02-12 18:43:00,
2013-02-12 12:48:00,29.7,24.3,30.07,WNW,288,4.6,4.6,80,0.00,OVC,,0.00,197.0,WeatherDisplay:10.37,2013-02-12 18:48:00,
2013-02-12 12:53:00,29.7,23.7,30.07,WSW,242,10.4,10.4,78,0.00,OVC,,0.00,229.0,WeatherDisplay:10.37,2013-02-12 18:53:00,
2013-02-12 12:58:00,29.7,23.7,30.07,WSW,248,10.4,10.4,78,0.00,OVC,,0.00,204.0,WeatherDisplay:10.37,2013-02-12 18:58:00,
2013-02-12 13:03:00,29.7,24.0,30.07,WSW,255,8.1,8.1,79,0.00,OVC,,0.00,179.0,WeatherDisplay:10.37,2013-02-12 19:03:00,
2013-02-12 13:08:00,29.7,23.7,30.07,WNW,293,10.4,10.4,78,0.00,OVC,,0.00,181.0,WeatherDisplay:10.37,2013-02-12 19:08:00,
2013-02-12 13:13:00,29.7,23.7,30.07,WSW,248,12.0,12.0,78,0.00,OVC,,0.00,202.0,WeatherDisplay:10.37,2013-02-12 19:13:00,
2013-02-12 13:18:00,29.6,23.6,30.07,West,262,7.0,7.0,78,0.00,OVC,,0.00,176.0,WeatherDisplay:10.37,2013-02-12 19:18:00,
2013-02-12 13:23:00,29.9,23.9,30.07,West,275,11.5,11.5,78,0.00,OVC,,0.00,236.0,WeatherDisplay:10.37,2013-02-12 19:23:00,
2013-02-12 13:28:00,30.0,24.0,30.07,WNW,302,9.2,9.2,78,0.00,OVC,,0.00,209.0,WeatherDisplay:10.37,2013-02-12 19:28:00,
2013-02-12 13:33:00,30.0,24.0,30.08,WSW,242,8.1,8.1,78,0.00,OVC,,0.00,162.0,WeatherDisplay:10.37,2013-02-12 19:33:00,
2013-02-12 13:38:00,30.0,24.0,30.08,West,276,5.0,5.0,78,0.00,OVC,,0.00,160.0,WeatherDisplay:10.37,2013-02-12 19:38:00,
2013-02-12 13:43:00,30.1,23.8,30.08,West,269,12.0,12.0,77,0.00,OVC,,0.00,151.0,WeatherDisplay:10.37,2013-02-12 19:43:00,
2013-02-12 13:48:00,30.1,24.1,30.08,NW,304,9.0,9.0,78,0.00,OVC,,0.00,160.0,WeatherDisplay:10.37,2013-02-12 19:48:00,
2013-02-12 13:53:00,30.2,24.2,30.08,WSW,246,10.4,10.4,78,0.00,OVC,,0.00,156.0,WeatherDisplay:10.37,2013-02-12 19:53:00,
2013-02-12 13:58:00,30.3,24.3,30.08,West,259,10.4,10.4,78,0.00,OVC,,0.00,167.0,WeatherDisplay:10.37,2013-02-12 19:58:00,
2013-02-12 14:03:00,30.3,24.0,30.08,WSW,247,8.1,8.1,77,0.00,OVC,,0.00,130.0,WeatherDisplay:10.37,2013-02-12 20:03:00,
2013-02-12 14:08:00,30.2,23.9,30.08,WSW,248,9.2,9.2,77,0.00,OVC,,0.00,128.0,WeatherDisplay:10.37,2013-02-12 20:08:00,
2013-02-12 14:13:00,30.4,24.4,30.07,SSW,202,6.9,6.9,78,0.00,OVC,,0.00,137.0,WeatherDisplay:10.37,2013-02-12 20:13:00,
2013-02-12 14:18:00,30.5,24.5,30.07,WSW,249,6.9,6.9,78,0.00,OVC,,0.00,141.0,WeatherDisplay:10.37,2013-02-12 20:18:00,
2013-02-12 14:23:00,30.6,24.6,30.07,WSW,237,8.1,8.1,78,0.00,OVC,,0.00,130.0,WeatherDisplay:10.37,2013-02-12 20:23:00,
2013-02-12 14:28:00,30.6,24.6,30.07,WNW,284,5.8,5.8,78,0.00,OVC,,0.00,144.0,WeatherDisplay:10.37,2013-02-12 20:28:00,
2013-02-12 14:33:00,30.7,24.7,30.07,SW,233,6.9,6.9,78,0.00,OVC,,0.00,142.0,WeatherDisplay:10.37,2013-02-12 20:33:00,
2013-02-12 14:38:00,30.8,24.4,30.07,WSW,238,6.9,6.9,77,0.00,OVC,,0.00,148.0,WeatherDisplay:10.37,2013-02-12 20:38:00,
2013-02-12 14:43:00,30.7,24.3,30.06,West,267,9.2,9.2,77,0.00,OVC,,0.00,156.0,WeatherDisplay:10.37,2013-02-12 20:43:00,
2013-02-12 14:48:00,30.9,24.8,30.06,WSW,245,11.5,11.5,78,0.00,OVC,,0.00,167.0,WeatherDisplay:10.37,2013-02-12 20:48:00,
2013-02-12 14:53:00,30.8,24.7,30.07,WSW,237,6.9,6.9,78,0.00,OVC,,0.00,121.0,WeatherDisplay:10.37,2013-02-12 20:53:00,
2013-02-12 14:58:00,30.7,24.7,30.06,West,264,11.5,11.5,78,0.00,OVC,,0.00,127.0,WeatherDisplay:10.37,2013-02-12 20:58:00,
2013-02-12 15:03:00,30.5,23.8,30.06,NW,321,6.9,6.9,76,0.00,OVC,,0.00,107.0,WeatherDisplay:10.37,2013-02-12 21:03:00,
2013-02-12 15:08:00,30.6,24.2,30.06,West,272,6.9,6.9,77,0.00,OVC,,0.00,128.0,WeatherDisplay:10.37,2013-02-12 21:08:00,
2013-02-12 15:13:00,30.6,24.6,30.06,West,267,9.2,9.2,78,0.00,OVC,,0.00,97.0,WeatherDisplay:10.37,2013-02-12 21:13:00,
2013-02-12 15:18:00,30.6,23.9,30.06,West,259,5.8,5.8,76,0.00,OVC,,0.00,77.0,WeatherDisplay:10.37,2013-02-12 21:18:00,
2013-02-12 15:23:00,30.6,24.2,30.06,WSW,254,11.5,11.5,77,0.00,OVC,,0.00,98.0,WeatherDisplay:10.37,2013-02-12 21:23:00,
2013-02-12 15:28:00,30.5,24.5,30.06,SW,236,11.5,11.5,78,0.00,OVC,,0.00,53.0,WeatherDisplay:10.37,2013-02-12 21:28:00,
2013-02-12 15:33:00,30.3,24.0,30.07,WSW,257,11.5,11.5,77,0.00,OVC,,0.00,62.0,WeatherDisplay:10.37,2013-02-12 21:33:00,
2013-02-12 15:38:00,30.2,24.2,30.07,WSW,241,13.0,13.0,78,0.00,OVC,,0.00,54.0,WeatherDisplay:10.37,2013-02-12 21:38:00,
2013-02-12 15:43:00,30.1,23.8,30.07,WSW,243,7.0,7.7,77,0.00,OVC,,0.00,58.0,WeatherDisplay:10.37,2013-02-12 21:43:00,
2013-02-12 15:48:00,30.0,23.7,30.06,WSW,256,12.0,12.0,77,0.00,OVC,,0.00,74.0,WeatherDisplay:10.37,2013-02-12 21:48:00,
2013-02-12 15:53:00,29.9,23.6,30.06,West,271,10.4,10.4,77,0.00,OVC,,0.00,84.0,WeatherDisplay:10.37,2013-02-12 21:53:00,
2013-02-12 15:58:00,29.9,23.6,30.06,SW,236,10.4,10.4,77,0.00,OVC,,0.00,70.0,WeatherDisplay:10.37,2013-02-12 21:58:00,
2013-02-12 16:03:00,29.9,23.9,30.06,WSW,248,12.0,12.0,78,0.00,OVC,,0.00,86.0,WeatherDisplay:10.37,2013-02-12 22:03:00,
2013-02-12 16:08:00,29.9,23.6,30.06,WSW,247,6.9,6.9,77,0.00,OVC,,0.00,81.0,WeatherDisplay:10.37,2013-02-12 22:08:00,
2013-02-12 16:13:00,29.9,23.6,30.06,WNW,286,8.1,8.1,77,0.00,OVC,,0.00,69.0,WeatherDisplay:10.37,2013-02-12 22:13:00,
2013-02-12 16:18:00,29.9,23.6,30.06,West,259,8.1,8.1,77,0.00,OVC,,0.00,90.0,WeatherDisplay:10.37,2013-02-12 22:18:00,
2013-02-12 16:23:00,30.0,23.7,30.05,West,276,6.9,6.9,77,0.00,OVC,,0.00,72.0,WeatherDisplay:10.37,2013-02-12 22:23:00,
2013-02-12 16:28:00,29.9,23.6,30.05,West,277,10.4,10.4,77,0.00,OVC,,0.00,65.0,WeatherDisplay:10.37,2013-02-12 22:28:00,
2013-02-12 16:33:00,30.0,24.0,30.05,WSW,257,6.9,6.9,78,0.00,OVC,,0.00,65.0,WeatherDisplay:10.37,2013-02-12 22:33:00,
2013-02-12 16:38:00,30.1,23.8,30.04,WSW,246,9.2,9.2,77,0.00,OVC,,0.00,65.0,WeatherDisplay:10.37,2013-02-12 22:38:00,
2013-02-12 16:43:00,30.0,23.7,30.04,West,260,9.2,9.2,77,0.00,OVC,,0.00,62.0,WeatherDisplay:10.37,2013-02-12 22:43:00,
2013-02-12 16:48:00,30.0,24.0,30.04,WSW,252,3.5,3.5,78,0.00,OVC,,0.00,42.0,WeatherDisplay:10.37,2013-02-12 22:48:00,
2013-02-12 16:53:00,29.9,23.6,30.04,WSW,240,10.0,10.0,77,0.00,OVC,,0.00,30.0,WeatherDisplay:10.37,2013-02-12 22:53:00,
2013-02-12 16:58:00,29.8,23.5,30.04,WSW,255,8.1,8.1,77,0.00,OVC,,0.00,26.0,WeatherDisplay:10.37,2013-02-12 22:58:00,
2013-02-12 17:03:00,29.7,23.7,30.03,SW,233,5.8,5.8,78,0.00,OVC,,0.00,21.0,WeatherDisplay:10.37,2013-02-12 23:03:00,
2013-02-12 17:08:00,29.6,23.6,30.03,West,267,5.0,5.0,78,0.00,OVC,,0.00,16.0,WeatherDisplay:10.37,2013-02-12 23:08:00,
2013-02-12 17:13:00,29.5,23.5,30.03,West,280,5.8,5.8,78,0.00,OVC,,0.00,11.0,WeatherDisplay:10.37,2013-02-12 23:13:00,
2013-02-12 17:18:00,29.5,23.5,30.03,WNW,288,3.5,3.5,78,0.00,BKN,,0.00,5.0,WeatherDisplay:10.37,2013-02-12 23:18:00,
2013-02-12 17:23:00,29.4,23.4,30.03,WSW,252,5.8,5.8,78,0.00,BKN,,0.00,0.0,WeatherDisplay:10.37,2013-02-12 23:23:00,
2013-02-12 17:28:00,29.4,23.7,30.03,WSW,254,3.5,3.5,79,0.00,BKN,,0.00,0.0,WeatherDisplay:10.37,2013-02-12 23:28:00,
2013-02-12 17:34:00,29.3,23.6,30.03,WSW,257,3.5,3.5,79,0.00,BKN,,0.00,0.0,WeatherDisplay:10.37,2013-02-12 23:34:00,
2013-02-12 17:39:00,29.2,23.5,30.03,WSW,250,3.5,3.5,79,0.00,BKN,,0.00,0.0,WeatherDisplay:10.37,2013-02-12 23:39:00,
2013-02-12 17:44:00,29.2,23.5,30.03,WSW,250,3.5,3.5,79,0.00,BKN,,0.00,0.0,WeatherDisplay:10.37,2013-02-12 23:44:00,
2013-02-12 17:49:00,29.0,23.6,30.03,WSW,250,2.3,2.3,80,0.00,BKN,,0.00,0.0,WeatherDisplay:10.37,2013-02-12 23:49:00,
2013-02-12 17:54:00,29.0,23.6,30.03,WSW,250,2.3,2.3,80,0.00,BKN,,0.00,0.0,WeatherDisplay:10.37,2013-02-12 23:54:00,
2013-02-12 17:59:00,28.8,23.7,30.03,WSW,250,2.3,2.3,81,0.00,BKN,,0.00,0.0,WeatherDisplay:10.37,2013-02-12 23:59:00,
2013-02-12 18:04:00,28.6,23.2,30.03,WSW,250,2.3,2.3,80,0.00,CLR,,0.00,0.0,WeatherDisplay:10.37,2013-02-13 00:04:00,
2013-02-12 18:09:00,28.6,23.2,30.03,WSW,249,0.0,0.0,80,0.00,CLR,,0.00,0.0,WeatherDisplay:10.37,2013-02-13 00:09:00,
2013-02-12 18:14:00,28.4,23.3,30.03,WSW,250,2.3,2.3,81,0.00,CLR,,0.00,0.0,WeatherDisplay:10.37,2013-02-13 00:14:00,
2013-02-12 18:19:00,28.3,23.5,30.03,WSW,249,0.0,0.0,82,0.00,CLR,,0.00,0.0,WeatherDisplay:10.37,2013-02-13 00:19:00,
2013-02-12 18:24:00,28.3,23.5,30.03,WSW,249,0.0,0.0,82,0.00,CLR,,0.00,0.0,WeatherDisplay:10.37,2013-02-13 00:24:00,
2013-02-12 18:29:00,28.3,23.5,30.03,WSW,249,0.0,0.0,82,0.00,CLR,,0.00,0.0,WeatherDisplay:10.37,2013-02-13 00:29:00,
2013-02-12 18:34:00,28.3,23.5,30.03,WSW,250,0.0,0.0,82,0.00,CLR,,0.00,0.0,WeatherDisplay:10.37,2013-02-13 00:34:00,
2013-02-12 18:39:00,28.1,23.3,30.02,WSW,249,0.0,0.0,82,0.00,CLR,,0.00,0.0,WeatherDisplay:10.37,2013-02-13 00:39:00,
2013-02-12 18:44:00,28.1,23.3,30.02,WSW,249,0.0,0.0,82,0.00,CLR,,0.00,0.0,WeatherDisplay:10.37,2013-02-13 00:44:00,
2013-02-12 18:49:00,27.8,23.0,30.02,WNW,285,1.1,1.1,82,0.00,CLR,,0.00,0.0,WeatherDisplay:10.37,2013-02-13 00:49:00,
2013-02-12 18:54:00,27.8,23.3,30.02,WNW,285,1.0,1.0,83,0.00,CLR,,0.00,0.0,WeatherDisplay:10.37,2013-02-13 00:54:00,
2013-02-12 18:59:00,27.6,23.1,30.01,WNW,288,3.5,3.5,83,0.00,CLR,,0.00,0.0,WeatherDisplay:10.37,2013-02-13 00:59:00,
2013-02-12 19:04:00,27.6,23.1,30.01,WNW,288,0.0,0.0,83,0.00,CLR,,0.00,0.0,WeatherDisplay:10.37,2013-02-13 01:04:00,
2013-02-12 19:09:00,27.5,23.0,30.01,WNW,288,0.0,0.0,83,0.00,CLR,,0.00,0.0,WeatherDisplay:10.37,2013-02-13 01:09:00,
2013-02-12 19:14:00,27.5,23.0,30.01,WNW,288,0.0,0.0,83,0.00,CLR,,0.00,0.0,WeatherDisplay:10.37,2013-02-13 01:14:00,
2013-02-12 19:19:00,27.4,22.9,30.01,WNW,288,0.0,0.0,83,0.00,CLR,,0.00,0.0,WeatherDisplay:10.37,2013-02-13 01:19:00,
2013-02-12 19:24:00,27.3,23.1,30.01,WNW,288,0.0,0.0,84,0.00,CLR,,0.00,0.0,WeatherDisplay:10.37,2013-02-13 01:24:00,
2013-02-12 19:29:00,27.2,23.0,30.00,WNW,288,0.0,0.0,84,0.00,CLR,,0.00,0.0,WeatherDisplay:10.37,2013-02-13 01:29:00,
2013-02-12 19:34:00,27.0,22.8,30.00,WNW,288,0.0,0.0,84,0.00,CLR,,0.00,0.0,WeatherDisplay:10.37,2013-02-13 01:34:00,
2013-02-12 19:39:00,26.8,22.6,30.01,WNW,288,0.0,0.0,84,0.00,CLR,,0.00,0.0,WeatherDisplay:10.37,2013-02-13 01:39:00,
2013-02-12 19:44:00,26.7,22.5,30.01,WNW,288,0.0,0.0,84,0.00,CLR,,0.00,0.0,WeatherDisplay:10.37,2013-02-13 01:44:00,
2013-02-12 19:49:00,26.6,22.4,30.01,WNW,288,0.0,0.0,84,0.00,CLR,,0.00,0.0,WeatherDisplay:10.37,2013-02-13 01:49:00,
2013-02-12 19:54:00,26.3,22.1,30.01,WNW,288,2.3,2.3,84,0.00,CLR,,0.00,0.0,WeatherDisplay:10.37,2013-02-13 01:54:00,
2013-02-12 19:59:00,26.1,22.2,30.00,WNW,288,0.0,0.0,85,0.00,CLR,,0.00,0.0,WeatherDisplay:10.37,2013-02-13 01:59:00,
2013-02-12 20:04:00,25.9,21.7,30.00,WNW,288,0.0,0.0,84,0.00,CLR,,0.00,0.0,WeatherDisplay:10.37,2013-02-13 02:04:00,
2013-02-12 20:09:00,25.8,21.9,30.00,WNW,288,0.0,0.0,85,0.00,CLR,,0.00,0.0,WeatherDisplay:10.37,2013-02-13 02:09:00,
2013-02-12 20:14:00,25.8,22.2,30.00,WNW,288,0.0,0.0,86,0.00,CLR,,0.00,0.0,WeatherDisplay:10.37,2013-02-13 02:14:00,
2013-02-12 20:19:00,25.8,22.5,30.00,WNW,288,0.0,0.0,87,0.00,CLR,,0.00,0.0,WeatherDisplay:10.37,2013-02-13 02:19:00,
2013-02-12 20:24:00,25.9,22.3,29.99,WNW,288,0.0,0.0,86,0.00,CLR,,0.00,0.0,WeatherDisplay:10.37,2013-02-13 02:24:00,
2013-02-12 20:29:00,26.0,22.4,29.99,WNW,288,0.0,0.0,86,0.00,CLR,,0.00,0.0,WeatherDisplay:10.37,2013-02-13 02:29:00,
2013-02-12 20:34:00,25.9,22.6,29.99,WNW,288,0.0,0.0,87,0.00,CLR,,0.00,0.0,WeatherDisplay:10.37,2013-02-13 02:34:00,
2013-02-12 20:39:00,26.0,22.7,29.99,WNW,288,0.0,0.0,87,0.00,CLR,,0.00,0.0,WeatherDisplay:10.37,2013-02-13 02:39:00,
2013-02-12 20:44:00,26.0,22.4,29.99,WNW,288,0.0,0.0,86,0.00,CLR,,0.00,0.0,WeatherDisplay:10.37,2013-02-13 02:44:00,
2013-02-12 20:49:00,25.8,22.5,29.98,WNW,288,0.0,0.0,87,0.00,CLR,,0.00,0.0,WeatherDisplay:10.37,2013-02-13 02:49:00,
2013-02-12 20:54:00,25.6,22.3,29.99,WNW,288,2.3,2.3,87,0.00,CLR,,0.00,0.0,WeatherDisplay:10.37,2013-02-13 02:54:00,
2013-02-12 20:59:00,25.3,22.2,29.99,WNW,288,2.3,2.3,88,0.00,CLR,,0.00,0.0,WeatherDisplay:10.37,2013-02-13 02:59:00,
2013-02-12 21:04:00,25.1,22.3,29.98,WNW,288,2.3,2.3,89,0.00,CLR,,0.00,0.0,WeatherDisplay:10.37,2013-02-13 03:04:00,
2013-02-12 21:09:00,25.0,22.2,29.98,WNW,288,0.0,0.0,89,0.00,CLR,,0.00,0.0,WeatherDisplay:10.37,2013-02-13 03:09:00,
2013-02-12 21:14:00,25.0,22.5,29.98,WNW,288,0.0,0.0,90,0.00,CLR,,0.00,0.0,WeatherDisplay:10.37,2013-02-13 03:14:00,
2013-02-12 21:19:00,25.0,22.2,29.98,WNW,288,0.0,0.0,89,0.00,CLR,,0.00,0.0,WeatherDisplay:10.37,2013-02-13 03:19:00,
2013-02-12 21:24:00,24.6,21.6,29.98,WNW,288,0.0,0.0,88,0.00,CLR,,0.00,0.0,WeatherDisplay:10.37,2013-02-13 03:24:00,
2013-02-12 21:29:00,24.4,21.4,29.98,WNW,288,0.0,0.0,88,0.00,CLR,,0.00,0.0,WeatherDisplay:10.37,2013-02-13 03:29:00,
2013-02-12 21:34:00,24.4,21.4,29.98,WNW,288,0.0,0.0,88,0.00,CLR,,0.00,0.0,WeatherDisplay:10.37,2013-02-13 03:34:00,
2013-02-12 21:39:00,24.4,21.6,29.98,WNW,288,0.0,0.0,89,0.00,CLR,,0.00,0.0,WeatherDisplay:10.37,2013-02-13 03:39:00,
2013-02-12 21:44:00,24.3,21.3,29.98,WNW,288,0.0,0.0,88,0.00,CLR,,0.00,0.0,WeatherDisplay:10.37,2013-02-13 03:44:00,
2013-02-12 21:49:00,24.4,21.4,29.98,WNW,288,0.0,0.0,88,0.00,CLR,,0.00,0.0,WeatherDisplay:10.37,2013-02-13 03:49:00,
2013-02-12 21:54:00,24.7,21.9,29.98,WNW,288,0.0,0.0,89,0.00,CLR,,0.00,0.0,WeatherDisplay:10.37,2013-02-13 03:54:00,
2013-02-12 21:59:00,24.7,21.9,29.98,WNW,288,1.0,1.0,89,0.00,CLR,,0.00,0.0,WeatherDisplay:10.37,2013-02-13 03:59:00,
2013-02-12 22:04:00,24.3,21.5,29.99,WNW,288,2.3,2.3,89,0.00,CLR,,0.00,0.0,WeatherDisplay:10.37,2013-02-13 04:04:00,
2013-02-12 22:09:00,24.1,21.3,29.99,WNW,288,0.0,0.0,89,0.00,CLR,,0.00,0.0,WeatherDisplay:10.37,2013-02-13 04:09:00,
2013-02-12 22:14:00,24.1,21.6,29.99,WNW,288,0.0,0.0,90,0.00,CLR,,0.00,0.0,WeatherDisplay:10.37,2013-02-13 04:14:00,
2013-02-12 22:19:00,24.1,21.6,29.99,WNW,288,2.0,2.0,90,0.00,CLR,,0.00,0.0,WeatherDisplay:10.37,2013-02-13 04:19:00,
2013-02-12 22:24:00,23.9,21.4,29.99,WNW,288,2.3,2.3,90,0.00,CLR,,0.00,0.0,WeatherDisplay:10.37,2013-02-13 04:24:00,
2013-02-12 22:29:00,23.7,21.2,29.99,WNW,288,3.5,3.5,90,0.00,CLR,,0.00,0.0,WeatherDisplay:10.37,2013-02-13 04:29:00,
2013-02-12 22:34:00,23.8,21.6,29.99,WNW,288,0.0,0.0,91,0.00,CLR,,0.00,0.0,WeatherDisplay:10.37,2013-02-13 04:34:00,
2013-02-12 22:39:00,23.8,21.6,29.99,WNW,288,0.0,0.0,91,0.00,CLR,,0.00,0.0,WeatherDisplay:10.37,2013-02-13 04:39:00,
2013-02-12 22:44:00,23.8,21.6,29.99,WNW,288,0.0,0.0,91,0.00,CLR,,0.00,0.0,WeatherDisplay:10.37,2013-02-13 04:44:00,
2013-02-12 22:49:00,23.9,21.7,29.99,WNW,288,0.0,0.0,91,0.00,CLR,,0.00,0.0,WeatherDisplay:10.37,2013-02-13 04:49:00,
2013-02-12 22:55:00,24.0,21.8,29.98,WNW,288,0.0,0.0,91,0.00,CLR,,0.00,0.0,WeatherDisplay:10.37,2013-02-13 04:55:00,
2013-02-12 23:00:00,24.1,21.6,29.99,WNW,288,0.0,0.0,90,0.00,CLR,,0.00,0.0,WeatherDisplay:10.37,2013-02-13 05:00:00,
2013-02-12 23:05:00,24.2,21.7,29.98,WNW,288,0.0,0.0,90,0.00,CLR,,0.00,0.0,WeatherDisplay:10.37,2013-02-13 05:05:00,
2013-02-12 23:10:00,24.0,21.2,29.98,WNW,288,0.0,0.0,89,0.00,CLR,,0.00,0.0,WeatherDisplay:10.37,2013-02-13 05:10:00,
2013-02-12 23:15:00,24.0,21.2,29.98,WNW,288,0.0,0.0,89,0.00,CLR,,0.00,0.0,WeatherDisplay:10.37,2013-02-13 05:15:00,
2013-02-12 23:20:00,24.2,21.7,29.98,WNW,288,0.0,0.0,90,0.00,CLR,,0.00,0.0,WeatherDisplay:10.37,2013-02-13 05:20:00,
2013-02-12 23:25:00,24.3,21.8,29.98,WNW,288,0.0,0.0,90,0.00,CLR,,0.00,0.0,WeatherDisplay:10.37,2013-02-13 05:25:00,
2013-02-12 23:30:00,24.2,21.4,29.98,WNW,288,0.0,0.0,89,0.00,CLR,,0.00,0.0,WeatherDisplay:10.37,2013-02-13 05:30:00,
2013-02-12 23:35:00,24.0,21.2,29.98,WNW,288,0.0,0.0,89,0.00,CLR,,0.00,0.0,WeatherDisplay:10.37,2013-02-13 05:35:00,
2013-02-12 23:40:00,23.8,21.0,29.98,WNW,288,0.0,0.0,89,0.00,CLR,,0.00,0.0,WeatherDisplay:10.37,2013-02-13 05:40:00,
2013-02-12 23:45:00,23.5,20.5,29.98,WNW,288,0.0,0.0,88,0.00,CLR,,0.00,0.0,WeatherDisplay:10.37,2013-02-13 05:45:00,
2013-02-12 23:50:00,23.4,20.6,29.98,WNW,288,0.0,0.0,89,0.00,CLR,,0.00,0.0,WeatherDisplay:10.37,2013-02-13 05:50:00,
2013-02-12 23:55:00,23.3,20.5,29.98,WNW,288,0.0,0.0,89,0.00,CLR,,0.00,0.0,WeatherDisplay:10.37,2013-02-13 05:55:00,